TimeCDT,TemperatureF,Dew PointF,Humidity,Sea Level PressureIn,VisibilityMPH,Wind Direction,Wind SpeedMPH,Gust SpeedMPH,PrecipitationIn,Events,Conditions,WindDirDegrees,DateUTC
12:56 AM,69.1,64.0,84,29.85,10.0,SW,3.5,-,0.00,,Clear,220,2013-06-27 05:56:00
1:56 AM,72.0,62.1,71,29.86,10.0,Calm,Calm,-,0.00,,Clear,0,2013-06-27 06:56:00
2:56 AM,71.1,63.0,75,29.87,10.0,West,5.8,-,N/A,,Clear,280,2013-06-27 07:56:00
3:06 AM,71.6,62.6,73,29.90,10.0,West,5.8,-,N/A,Thunderstorm,Clear,260,2013-06-27 08:06:00
3:19 AM,71.6,62.6,73,29.90,10.0,West,3.5,-,N/A,Thunderstorm,Clear,280,2013-06-27 08:19:00
3:44 AM,73.4,64.4,73,29.92,10.0,West,6.9,-,N/A,,Clear,280,2013-06-27 08:44:00
3:56 AM,72.0,64.0,76,29.88,10.0,WNW,6.9,-,N/A,,Clear,290,2013-06-27 08:56:00
4:56 AM,72.0,64.9,78,29.89,10.0,SW,3.5,-,N/A,,Mostly Cloudy,230,2013-06-27 09:56:00
5:56 AM,71.1,64.9,81,29.89,10.0,WNW,4.6,-,0.00,,Mostly Cloudy,290,2013-06-27 10:56:00
6:56 AM,71.1,64.9,81,29.90,10.0,Calm,Calm,-,0.00,,Mostly Cloudy,0,2013-06-27 11:56:00
7:56 AM,72.0,64.0,76,29.92,10.0,WNW,5.8,-,N/A,,Mostly Cloudy,290,2013-06-27 12:56:00
8:56 AM,73.9,66.9,79,29.91,10.0,Calm,Calm,-,N/A,,Mostly Cloudy,0,2013-06-27 13:56:00
9:56 AM,75.0,64.0,69,29.95,10.0,WSW,6.9,-,N/A,,Mostly Cloudy,240,2013-06-27 14:56:00
10:56 AM,73.9,66.0,76,29.96,10.0,WSW,6.9,-,N/A,,Mostly Cloudy,250,2013-06-27 15:56:00
11:56 AM,77.0,64.0,64,29.97,10.0,West,5.8,-,N/A,,Mostly Cloudy,270,2013-06-27 16:56:00
12:56 PM,82.0,62.1,51,29.97,10.0,WNW,13.8,-,N/A,,Scattered Clouds,300,2013-06-27 17:56:00
1:56 PM,82.0,59.0,45,29.96,10.0,WNW,15.0,23.0,N/A,,Scattered Clouds,300,2013-06-27 18:56:00
2:56 PM,82.9,60.1,46,29.95,10.0,WNW,13.8,20.7,N/A,,Partly Cloudy,300,2013-06-27 19:56:00
3:56 PM,84.0,59.0,43,29.94,10.0,WNW,12.7,-,N/A,,Partly Cloudy,300,2013-06-27 20:56:00
4:56 PM,84.0,57.0,40,29.94,10.0,NW,12.7,24.2,N/A,,Partly Cloudy,310,2013-06-27 21:56:00
5:56 PM,84.0,55.0,37,29.93,10.0,NW,15.0,24.2,N/A,,Partly Cloudy,310,2013-06-27 22:56:00
6:56 PM,82.9,55.0,38,29.92,10.0,WNW,11.5,23.0,N/A,,Partly Cloudy,300,2013-06-27 23:56:00
7:56 PM,81.0,57.9,45,29.91,10.0,WNW,8.1,-,N/A,,Partly Cloudy,290,2013-06-28 00:56:00
8:56 PM,77.0,59.0,54,29.90,10.0,West,4.6,-,N/A,,Partly Cloudy,280,2013-06-28 01:56:00
9:56 PM,75.0,61.0,62,29.90,10.0,West,4.6,-,N/A,,Mostly Cloudy,280,2013-06-28 02:56:00
10:56 PM,72.0,62.1,71,29.91,10.0,WNW,5.8,-,N/A,,Partly Cloudy,290,2013-06-28 03:56:00
11:56 PM,70.0,62.1,76,29.94,10.0,NW,8.1,-,N/A,,Clear,320,2013-06-28 04:56:00